Stündliche Wetter Cayuny

Heute, 28 Oktober, Mittwoch

Zeit Temperatur Niederschläge Wind Luftdruck Luftfeuchtigkeit
00:00 +11°C° 0 mm 4 m/S 748 mmHg 89%
01:00 +11°C° 0 mm 4 m/S 748 mmHg 91%
02:00 +11°C° 0 mm 4 m/S 748 mmHg 92%
03:00 +10°C° 0 mm 4 m/S 748 mmHg 93%
04:00 +10°C° 0 mm 3 m/S 748 mmHg 94%
05:00 +9°C° 0 mm 3 m/S 748 mmHg 95%
06:00 +9°C° 0 mm 3 m/S 748 mmHg 95%
07:00 +9°C° 0 mm 3 m/S 748 mmHg 96%
08:00 +9°C° 0 mm 2 m/S 749 mmHg 96%
09:00 +10°C° 0 mm 3 m/S 749 mmHg 91%
10:00 +11°C° 0 mm 3 m/S 749 mmHg 86%
11:00 +13°C° 0 mm 4 m/S 749 mmHg 81%
12:00 +13°C° 0 mm 4 m/S 749 mmHg 78%
13:00 +14°C° 0 mm 4 m/S 749 mmHg 75%
14:00 +15°C° 0 mm 4 m/S 748 mmHg 71%
15:00 +14°C° 0 mm 3 m/S 748 mmHg 77%
16:00 +13°C° 0 mm 3 m/S 748 mmHg 82%
17:00 +12°C° 0 mm 3 m/S 748 mmHg 87%
18:00 +12°C° 0 mm 3 m/S 748 mmHg 89%
19:00 +11°C° 0 mm 3 m/S 748 mmHg 91%
20:00 +11°C° 0 mm 3 m/S 748 mmHg 93%
21:00 +11°C° 0 mm 3 m/S 748 mmHg 94%
22:00 +11°C° 0 mm 3 m/S 748 mmHg 95%
23:00 +10°C° 0 mm 3 m/S 748 mmHg 95%

Morgen, 29 Oktober, Donnerstag

Zeit Temperatur Niederschläge Wind Luftdruck Luftfeuchtigkeit
00:00 +10°C° 0 mm 3 m/S 748 mmHg 95%
01:00 +10°C° 0 mm 3 m/S 748 mmHg 95%
02:00 +10°C° 0 mm 3 m/S 748 mmHg 95%
03:00 +9°C° 0 mm 3 m/S 748 mmHg 96%
04:00 +9°C° 0 mm 3 m/S 747 mmHg 96%
05:00 +9°C° 0 mm 3 m/S 747 mmHg 97%
06:00 +9°C° 0 mm 2 m/S 747 mmHg 96%
07:00 +9°C° 0 mm 2 m/S 747 mmHg 96%
08:00 +9°C° 0 mm 2 m/S 747 mmHg 96%
09:00 +10°C° 0 mm 2 m/S 747 mmHg 92%
10:00 +10°C° 0 mm 2 m/S 747 mmHg 88%
11:00 +12°C° 0 mm 2 m/S 747 mmHg 84%
12:00 +13°C° 0 mm 2 m/S 747 mmHg 81%
13:00 +13°C° 0 mm 2 m/S 747 mmHg 78%
14:00 +13°C° 0 mm 2 m/S 746 mmHg 74%
15:00 +13°C° 0 mm 2 m/S 746 mmHg 78%
16:00 +12°C° 0 mm 2 m/S 746 mmHg 83%
17:00 +10°C° 0 mm 2 m/S 746 mmHg 87%
18:00 +9°C° 0 mm 2 m/S 746 mmHg 88%
19:00 +9°C° 0 mm 2 m/S 746 mmHg 89%
20:00 +8°C° 0 mm 2 m/S 746 mmHg 91%
21:00 +8°C° 0 mm 2 m/S 746 mmHg 91%
22:00 +9°C° 0 mm 1 m/S 746 mmHg 91%
23:00 +9°C° 0 mm 1 m/S 746 mmHg 91%

übermorgen, 30 Oktober, Freitag

Zeit Temperatur Niederschläge Wind Luftdruck Luftfeuchtigkeit
00:00 +8°C° 0 mm 1 m/S 746 mmHg 91%
01:00 +8°C° 0 mm 1 m/S 746 mmHg 91%
02:00 +8°C° 0 mm 1 m/S 746 mmHg 91%
03:00 +8°C° 0 mm 1 m/S 746 mmHg 91%
04:00 +8°C° 0 mm 1 m/S 746 mmHg 91%
05:00 +8°C° 0 mm 1 m/S 746 mmHg 91%
06:00 +8°C° 0 mm 1 m/S 747 mmHg 91%
07:00 +8°C° 0 mm 1 m/S 747 mmHg 91%
08:00 +8°C° 0 mm 1 m/S 747 mmHg 91%
09:00 +9°C° 0 mm 1 m/S 747 mmHg 90%
10:00 +8°C° 0 mm 2 m/S 747 mmHg 89%
11:00 +9°C° 0 mm 2 m/S 747 mmHg 88%
12:00 +9°C° 0.2 mm 2 m/S 747 mmHg 88%
13:00 +9°C° 0.2 mm 3 m/S 747 mmHg 87%
14:00 +9°C° 0.2 mm 3 m/S 747 mmHg 87%
15:00 +9°C° 0.3 mm 3 m/S 747 mmHg 88%
16:00 +8°C° 0.3 mm 3 m/S 747 mmHg 90%
17:00 +8°C° 0.3 mm 3 m/S 747 mmHg 91%
18:00 +8°C° 0.3 mm 3 m/S 748 mmHg 92%
19:00 +8°C° 0.3 mm 2 m/S 748 mmHg 92%
20:00 +8°C° 0.3 mm 2 m/S 748 mmHg 93%
21:00 +8°C° 0.1 mm 2 m/S 748 mmHg 92%
22:00 +7°C° 0.1 mm 3 m/S 748 mmHg 92%
23:00 +7°C° 0.1 mm 3 m/S 748 mmHg 92%

31 Oktober, Samstag

Zeit Temperatur Niederschläge Wind Luftdruck Luftfeuchtigkeit
00:00 +7°C° 0.3 mm 3 m/S 748 mmHg 92%
01:00 +7°C° 0.3 mm 3 m/S 749 mmHg 92%
02:00 +7°C° 0.3 mm 3 m/S 749 mmHg 93%
03:00 +7°C° 0.1 mm 3 m/S 749 mmHg 93%
04:00 +6°C° 0.1 mm 4 m/S 750 mmHg 93%
05:00 +6°C° 0.1 mm 4 m/S 750 mmHg 93%
06:00 +6°C° 0 mm 4 m/S 751 mmHg 93%
07:00 +6°C° 0 mm 4 m/S 751 mmHg 92%
08:00 +6°C° 0 mm 4 m/S 752 mmHg 92%
09:00 +6°C° 0 mm 4 m/S 752 mmHg 90%
10:00 +7°C° 0 mm 4 m/S 753 mmHg 88%
11:00 +7°C° 0 mm 4 m/S 754 mmHg 85%
12:00 +8°C° 0 mm 4 m/S 754 mmHg 84%
13:00 +9°C° 0 mm 3 m/S 754 mmHg 82%
14:00 +9°C° 0 mm 3 m/S 754 mmHg 81%
15:00 +9°C° 0 mm 3 m/S 755 mmHg 84%
16:00 +8°C° 0 mm 2 m/S 755 mmHg 87%
17:00 +7°C° 0 mm 2 m/S 755 mmHg 90%
18:00 +7°C° 0 mm 2 m/S 756 mmHg 92%
19:00 +6°C° 0 mm 2 m/S 756 mmHg 93%
20:00 +6°C° 0 mm 2 m/S 757 mmHg 94%
21:00 +5°C° 0 mm 2 m/S 757 mmHg 94%
22:00 +5°C° 0 mm 2 m/S 757 mmHg 95%
23:00 +5°C° 0 mm 2 m/S 757 mmHg 95%

1 November, Sonntag

Zeit Temperatur Niederschläge Wind Luftdruck Luftfeuchtigkeit
00:00 +6°C° 0 mm 1 m/S 757 mmHg 95%
01:00 +5°C° 0 mm 1 m/S 757 mmHg 95%
02:00 +5°C° 0 mm 1 m/S 758 mmHg 96%
03:00 +5°C° 0 mm 1 m/S 758 mmHg 96%
04:00 +5°C° 0 mm 1 m/S 758 mmHg 96%
05:00 +5°C° 0 mm 1 m/S 758 mmHg 96%
06:00 +5°C° 0 mm 1 m/S 758 mmHg 95%
07:00 +5°C° 0 mm 1 m/S 758 mmHg 95%
08:00 +5°C° 0 mm 1 m/S 758 mmHg 94%
09:00 +6°C° 0 mm 1 m/S 758 mmHg 93%
10:00 +6°C° 0 mm 1 m/S 758 mmHg 91%
11:00 +7°C° 0 mm 1 m/S 758 mmHg 89%
12:00 +6°C° 0 mm 2 m/S 758 mmHg 88%
13:00 +6°C° 0 mm 2 m/S 758 mmHg 87%
14:00 +6°C° 0 mm 2 m/S 757 mmHg 86%
15:00 +6°C° 0 mm 2 m/S 757 mmHg 86%
16:00 +6°C° 0 mm 2 m/S 757 mmHg 87%
17:00 +6°C° 0 mm 2 m/S 757 mmHg 88%
18:00 +5°C° 0 mm 2 m/S 757 mmHg 90%
19:00 +5°C° 0 mm 2 m/S 757 mmHg 92%
20:00 +4°C° 0 mm 2 m/S 757 mmHg 94%
21:00 +4°C° 0 mm 2 m/S 757 mmHg 94%
22:00 +4°C° 0 mm 2 m/S 757 mmHg 94%
23:00 +3°C° 0 mm 2 m/S 757 mmHg 95%

2 November, Montag

Zeit Temperatur Niederschläge Wind Luftdruck Luftfeuchtigkeit
00:00 +2°C° 0 mm 3 m/S 757 mmHg 95%
01:00 +2°C° 0 mm 3 m/S 757 mmHg 95%
02:00 +2°C° 0 mm 3 m/S 757 mmHg 95%
03:00 +2°C° 0 mm 3 m/S 756 mmHg 95%
04:00 +2°C° 0 mm 3 m/S 756 mmHg 96%
05:00 +2°C° 0 mm 3 m/S 756 mmHg 96%
06:00 +2°C° 0 mm 3 m/S 756 mmHg 96%
07:00 +3°C° 0 mm 3 m/S 756 mmHg 96%
08:00 +3°C° 0 mm 3 m/S 756 mmHg 95%
09:00 +4°C° 0 mm 4 m/S 756 mmHg 91%
10:00 +5°C° 0 mm 4 m/S 756 mmHg 86%
11:00 +7°C° 0 mm 5 m/S 756 mmHg 81%
12:00 +7°C° 0 mm 5 m/S 756 mmHg 79%
13:00 +8°C° 0 mm 5 m/S 756 mmHg 77%
14:00 +9°C° 0 mm 5 m/S 756 mmHg 75%
15:00 +8°C° 0 mm 4 m/S 756 mmHg 79%
16:00 +7°C° 0 mm 4 m/S 756 mmHg 83%
17:00 +6°C° 0 mm 4 m/S 755 mmHg 87%
18:00 +6°C° 0 mm 4 m/S 756 mmHg 88%
19:00 +6°C° 0 mm 4 m/S 756 mmHg 89%
20:00 +5°C° 0 mm 4 m/S 756 mmHg 90%
21:00 +5°C° 0 mm 4 m/S 756 mmHg 89%
22:00 +5°C° 0 mm 4 m/S 756 mmHg 88%
23:00 +5°C° 0 mm 4 m/S 756 mmHg 88%
Mehr zeigen